Location: Newark
(42.8481°N, 0.4872°E)
Time: 23:47:37
(UTC+00:00)

Vanguard 3 - Pass Details

Date: 28 October 2020
Orbit: 508 x 3262 km, 33.3° (Epoch: 29 November)

Event Time Altitude Azimuth Distance (km) Brightness Sun altitude
Rises 06:53:48 0° 250° (WSW) 6,648 11.4 3.7°
Reaches altitude 10° 06:57:57 10° 247° (WSW) 5,855 11.1 4.4°
Maximum altitude 07:16:52 62° 173° (S) 3,505 10.7 7.5°
Drops below altitude 10° 07:34:05 10° 99° (E) 5,401 13.0 10.3°
Sets 07:37:43 0° 96° (E) 6,130 13.0 10.9°
